MMS 3

Last updated on Aug. 10, 2020, 5:33 a.m. UTC

1 40484U 15011C   20222.27033612 -.00001871  00000-0  00000+0 0  9997
2 40484  29.5575 119.9718 8572344  22.8048 129.0901  0.28665360 11345
UTC
Height (km)
Latitude
Longitude
Inclination
Orbital Period
UTC large
Height (km)
Speed (km/s)
/
Latitude / Longitude
Inclination (degrees)
Orbital Period (minutes)
Azimuth
Elevation
Range (km)
Doppler Factor
iOS Compass Heading
iOS Angle

Next 30 passes for location: Hong Kong

Rise time Rise Azimuth (degrees) Set time Set Azimuth (degrees) Duration Max altitude (degrees)

No matching passes for this satellites